AirNav   Air Wisconsin Up To $57,000 Bonus
 
 1089 users online  

WN92 Sky Meadows Airpark
Spokane, Washington, USA

GOING TO SPOKANE?


FAA INFORMATION EFFECTIVE 20 MAY 2021

Location

FAA Identifier: WN92
Lat/Long: 47-36-30.6280N 117-10-50.7260W
47-36.510467N 117-10.845433W
47.6085078,-117.1807572
(estimated)
Elevation: 2350 ft. / 716 m (estimated)
Variation: 19E (1985)
From city: 8 miles SE of SPOKANE, WA
Time zone: UTC -7 (UTC -8 during Standard Time)
Zip code: 99016

Airport Operations

Airport use: Private use. Permission required prior to landing
Activation date: 01/1988
Control tower: no
ARTCC: SEATTLE CENTER
FSS: SEATTLE FLIGHT SERVICE STATION
Attendance: UNATNDD
Wind indicator: yes
Segmented circle: no
Lights: ACTVT MIRL RY 16/34 - 122.9.

Airport Communications

WX ASOS at SFF (7 nm NW): 120.55 (509-535-3290)
WX ASOS at GEG (14 nm W): PHONE 509-742-2544
WX AWOS-3PT at COE (18 nm NE): 135.075 (208-772-8215)

Nearby radio navigation aids

VOR radial/distance  VOR name  Freq  Var
COEr217/17.6COEUR D'ALENE VOR/DME108.8019E
GEGr061/18.2SPOKANE VORTAC115.5021E

 
NDB name  Hdg/Dist  Freq  Var  ID
DEER PARK139/23.736516EDPY -.. .--. -.--

Airport Services

Runway Information

Runway 16/34

Dimensions: 3100 x 100 ft. / 945 x 30 m
Surface: turf, in good condition
Runway edge lights: medium intensity
RUNWAY 16  RUNWAY 34
Traffic pattern: leftleft
Displaced threshold: no400 ft.

Airport Ownership and Management from official FAA records

Ownership: Privately-owned
Owner: SKY MEADOWS AIRPARK ASSOC
16616 E 44TH AVE
GREENACRES, WA 99016
Phone (509) 999-1505
OR CALL 509-926-1636 (EVENINGS).
Manager: LARRY HOWARD
16616 E 44TH AVE
GREENACRES, WA 99016
Phone (509) 999-1505
OR 509-926-1636 (EVENINGS).

Airport Operational Statistics

Aircraft based on the field: 7
Single engine airplanes: 7
    

Additional Remarks

FOR CD CTC SPOKANE APCH AT 509-742-2522

Instrument Procedures

There are no published instrument procedures at WN92.

Some nearby airports with instrument procedures:

KSFF - Felts Field Airport (7 nm NW)
KGEG - Spokane International Airport (14 nm W)
KCOE - Coeur d'Alene Airport - Pappy Boyington Field (18 nm NE)
KSKA - Fairchild Air Force Base (19 nm W)
KDEW - Deer Park Airport (24 nm NW)
 
Loc | Ops | Rwys | IFR | FBO | Links
Com | Nav | Svcs | Stats | Notes
Area around WN92 (Sky Meadows Airpark)
 
Road maps at: MapQuest Bing Google
 
Aerial photo
WARNING: Photo may not be current or correct
Aerial photo of WN92 (Sky Meadows Airpark)
Do you have a better or more recent aerial photo of Sky Meadows Airpark that you would like to share? If so, please send us your photo.

 
Sectional chart

 
Airport distance calculator
Flying to Sky Meadows Airpark? Find the distance to fly.

From to WN92

Sunrise and sunset
Times for 13-Jun-2021
 Local
(UTC-7)
 Zulu
(UTC)
Morning civil twilight04:1111:11
Sunrise04:5111:51
Sunset20:4603:46
Evening civil twilight21:2704:27

Current date and time
Zulu (UTC)  13-Jun-2021 19:38:26
Local (UTC-7)  13-Jun-2021 12:38:26
 
METAR
KSFF 
7nm NW 
131853Z VRB04KT 10SM CLR 28/09 A2990 RMK AO2 SLP109 T02780089
KGEG 
14nm W 
131853Z 34007KT 10SM FEW050 FEW150 FEW200 27/09 A2991 RMK AO2 SLP111 T02720094
KCOE 
18nm NE 
131856Z AUTO 06003KT 10SM CLR 26/11 A2992 RMK AO2 SLP134 T02560106 PNO $
KSKA 
19nm W 
131858Z AUTO 07003KT 10SM CLR 29/09 A2991 RMK AO2 SLP116 T02930089 $
TAF
KSFF 
7nm NW 
131734Z 1318/1418 VRB05KT P6SM SCT110 BKN200 FM140600 22012KT P6SM SCT100 BKN150 FM141000 VRB05KT P6SM SCT100 BKN150
KGEG 
14nm W 
131734Z 1318/1418 06005KT P6SM BKN200 FM140100 VRB05KT P6SM SCT150 FM140600 22012KT P6SM SCT100 BKN150 FM141000 22006KT P6SM SCT100 BKN150
KCOE 
18nm NE 
131734Z 1318/1418 03012KT P6SM BKN200 FM140100 VRB06KT P6SM SCT150 FM141000 15011KT P6SM SCT100 BKN150
KSKA 
19nm W 
131100Z 1311/1417 VRB06KT 9999 FEW035 BKN100 QNH2973INS BECMG 1402/1403 24009KT 9999 FEW150 QNH2971INS TX28/1323Z TN14/1312Z
NOTAMs
Click for the latest NOTAMs
NOTAMs are issued by the DoD/FAA and will open in a separate window not controlled by AirNav.

 

 
 

Would you like to see your business listed on this page?

 If your business provides an interesting product or service to pilots, flight crews, aircraft, or users of the Sky Meadows Airpark, you should consider listing it here.  To start the listing process, click on the button below
 
Add a business
 

Other Pages about Sky Meadows Airpark

Update a link
 
Copyright © AirNav, LLC. All rights reserved. Privacy Policy  Contact